QPF
0.00 0.00 0.00 0.00 0.00 0.00 0.00 0.00 0.00 0.00 0.00 0.00 0.00 0.00 0.00 0.00 0.00 0.00 0.00 0.00 0.00 0.00 0.00 0.00 0.00 0.00 0.00 0.00 0.00 0.00 0.00 0.00 0.00 0.00 0.00 0.00 0.02 0.01 0.11 0.05 0.14 0.10 0.02 0.00 0.00
0.00 0.00 0.00 0.00 0.00 0.00 0.00 0.00 0.00 0.00 0.00 0.00 0.00 0.00 0.00 0.00 0.00 0.00 0.00 0.00 0.00 0.00 0.00 0.00 0.00 0.00 0.00 0.00 0.00 0.00 0.00 0.00 0.00 0.00 0.00 0.00 0.01 0.01 0.04 0.02 0.07 0.16 0.01 0.00 0.00
0.00 0.00 0.00 0.00 0.00 0.00 0.00 0.00 0.00 0.00 0.00 0.00 0.00 0.00 0.00 0.00 0.00 0.00 0.00 0.00 0.00 0.00 0.00 0.00 0.00 0.00 0.00 0.00 0.00 0.00 0.00 0.00 0.00 0.00 0.00 0.00 0.00 0.01 0.02 0.12 0.18 0.13 0.01 0.00 0.00
0.00 0.00 0.00 0.00 0.00 0.00 0.00 0.00 0.00 0.00 0.00 0.00 0.00 0.00 0.00 0.00 0.00 0.00 0.00 0.00 0.00 0.00 0.00 0.00 0.00 0.00 0.00 0.00 0.00 0.00 0.00 0.00 0.00 0.00 0.00 0.00 0.00 0.00 0.00 0.04 0.16 0.23 0.07 0.02 0.00
0.00 0.00 0.00 0.00 0.00 0.00 0.00 0.00 0.00 0.00 0.00 0.00 0.00 0.00 0.00 0.00 0.00 0.00 0.00 0.00 0.00 0.00 0.00 0.00 0.00 0.00 0.00 0.00 0.00 0.00 0.00 0.00 0.00 0.00 0.00 0.00 0.00 0.00 0.00 0.03 0.03 0.06 0.07 0.13 0.05
0.00 0.00 0.00 0.00 0.00 0.00 0.00 0.00 0.00 0.00 0.00 0.00 0.00 0.00 0.00 0.00 0.00 0.00 0.00 0.00 0.00 0.00 0.00 0.00 0.00 0.00 0.00 0.00 0.00 0.00 0.00 0.00 0.00 0.00 0.00 0.00 0.00 0.00 0.00 0.01 0.01 0.04 0.05 0.05 0.04
0.00 0.00 0.00 0.00 0.00 0.00 0.00 0.00 0.00 0.00 0.00 0.00 0.00 0.00 0.00 0.00 0.00 0.00 0.00 0.00 0.00 0.00 0.00 0.00 0.00 0.00 0.00 0.00 0.00 0.00 0.00 0.00 0.00 0.00 0.00 0.00 0.00 0.00 0.00 0.00 0.00 0.00 0.02 0.02 0.09
0.00 0.00 0.00 0.00 0.00 0.00 0.00 0.00 0.00 0.00 0.00 0.00 0.00 0.00 0.00 0.00 0.00 0.00 0.00 0.00 0.00 0.00 0.00 0.00 0.00 0.00 0.00 0.00 0.00 0.00 0.00 0.00 0.00 0.00 0.00 0.00 0.00 0.00 0.00 0.00 0.00 0.00 0.01 0.02 0.05
0.00 0.00 0.00 0.00 0.00 0.00 0.00 0.00 0.00 0.00 0.00 0.00 0.00 0.00 0.00 0.00 0.00 0.00 0.00 0.00 0.00 0.00 0.00 0.00 0.00 0.00 0.00 0.00 0.00 0.00 0.00 0.00 0.00 0.00 0.00 0.00 0.00 0.00 0.00 0.00 0.00 0.00 0.00 0.00 0.02
0.00 0.00 0.00 0.00 0.00 0.00 0.00 0.00 0.00 0.00 0.00 0.00 0.00 0.00 0.00 0.00 0.00 0.00 0.00 0.00 0.00 0.00 0.00 0.00 0.00 0.00 0.00 0.00 0.00 0.00 0.00 0.00 0.00 0.00 0.00 0.00 0.00 0.00 0.00 0.00 0.00 0.00 0.00 0.00 0.00
0.00 0.00 0.00 0.00 0.00 0.00 0.00 0.00 0.00 0.00 0.00 0.00 0.00 0.00 0.00 0.00 0.00 0.00 0.00 0.00 0.00 0.00 0.00 0.00 0.00 0.00 0.00 0.00 0.00 0.00 0.00 0.00 0.00 0.00 0.00 0.00 0.00 0.00 0.00 0.00 0.00 0.00 0.00 0.00 0.00
0.00 0.00 0.00 0.00 0.00 0.00 0.00 0.00 0.00 0.00 0.00 0.00 0.00 0.00 0.00 0.00 0.00 0.00 0.00 0.00 0.00 0.00 0.00 0.00 0.00 0.00 0.00 0.00 0.00 0.00 0.00 0.00 0.00 0.00 0.00 0.00 0.00 0.00 0.00 0.00 0.00 0.00 0.00 0.00 0.00
0.00 0.00 0.00 0.00 0.00 0.00 0.00 0.00 0.00 0.00 0.00 0.00 0.00 0.00 0.00 0.00 0.00 0.00 0.00 0.00 0.00 0.00 0.00 0.00 0.00 0.00 0.00 0.00 0.00 0.00 0.00 0.00 0.00 0.00 0.00 0.00 0.00 0.00 0.00 0.00 0.00 0.00 0.00 0.01 0.09
0.00 0.00 0.00 0.00 0.00 0.00 0.00 0.00 0.00 0.00 0.00 0.00 0.00 0.00 0.00 0.00 0.00 0.00 0.00 0.00 0.00 0.00 0.00 0.00 0.00 0.00 0.00 0.00 0.00 0.00 0.01 0.00 0.00 0.00 0.00 0.00 0.00 0.00 0.00 0.00 0.00 0.00 0.00 0.01 0.04
0.00 0.00 0.00 0.00 0.00 0.00 0.00 0.00 0.00 0.00 0.00 0.00 0.00 0.00 0.00 0.00 0.00 0.00 0.00 0.00 0.00 0.00 0.00 0.00 0.00 0.00 0.00 0.00 0.00 0.00 0.00 0.00 0.00 0.01 0.00 0.00 0.00 0.00 0.00 0.00 0.00 0.00 0.00 0.00 0.01
0.00 0.00 0.00 0.00 0.00 0.00 0.00 0.00 0.00 0.00 0.00 0.00 0.00 0.00 0.00 0.00 0.00 0.00 0.00 0.00 0.00 0.00 0.00 0.00 0.00 0.00 0.00 0.00 0.00 0.00 0.01 0.00 0.00 0.01 0.00 0.00 0.00 0.00 0.00 0.01 0.00 0.00 0.00 0.01 0.02
0.00 0.00 0.00 0.00 0.00 0.00 0.00 0.00 0.00 0.00 0.00 0.00 0.00 0.00 0.00 0.00 0.00 0.00 0.00 0.00 0.00 0.00 0.00 0.00 0.00 0.00 0.00 0.00 0.00 0.00 0.01 0.03 0.03 0.02 0.00 0.01 0.01 0.00 0.02 0.01 0.00 0.01 0.00 0.02 0.01
0.00 0.00 0.00 0.00 0.00 0.00 0.00 0.00 0.00 0.00 0.00 0.00 0.00 0.00 0.00 0.00 0.00 0.00 0.00 0.00 0.00 0.00 0.00 0.00 0.00 0.00 0.00 0.00 0.00 0.00 0.03 0.25 0.23 0.21 0.32 0.30 0.21 0.09 0.05 0.03 0.05 0.02 0.05 0.04 0.07
0.00 0.00 0.00 0.00 0.00 0.00 0.00 0.00 0.00 0.00 0.00 0.00 0.00 0.00 0.00 0.00 0.00 0.00 0.00 0.00 0.00 0.00 0.00 0.00 0.00 0.00 0.00 0.00 0.00 0.00 0.01 0.12 0.30 0.21 0.31 0.42 0.22 0.18 0.16 0.01 0.13 0.13 0.13 0.10 0.07
0.00 0.00 0.00 0.00 0.00 0.00 0.00 0.00 0.00 0.00 0.00 0.00 0.00 0.00 0.00 0.00 0.00 0.00 0.00 0.00 0.00 0.00 0.00 0.00 0.00 0.00 0.00 0.00 0.00 0.00 0.00 0.03 0.25 0.16 0.03 0.01 0.00 0.01 0.01 0.01 0.09 0.09 0.10 0.28 0.11
0.00 0.00 0.00 0.00 0.00 0.00 0.00 0.00 0.00 0.00 0.00 0.00 0.00 0.00 0.00 0.00 0.00 0.00 0.00 0.00 0.00 0.00 0.00 0.00 0.00 0.00 0.00 0.00 0.00 0.00 0.00 0.00 0.07 0.17 0.02 0.00 0.00 0.00 0.00 0.00 0.00 0.00 0.01 0.10 0.03
0.00 0.00 0.00 0.00 0.00 0.00 0.00 0.00 0.00 0.00 0.00 0.00 0.00 0.00 0.00 0.00 0.00 0.00 0.00 0.00 0.00 0.00 0.00 0.00 0.00 0.00 0.00 0.00 0.00 0.00 0.00 0.00 0.01 0.11 0.04 0.00 0.00 0.00 0.00 0.00 0.00 0.00 0.00 0.00 0.00
0.00 0.00 0.00 0.00 0.00 0.00 0.00 0.00 0.00 0.00 0.00 0.00 0.00 0.00 0.00 0.00 0.00 0.00 0.00 0.00 0.00 0.00 0.00 0.00 0.00 0.00 0.00 0.00 0.00 0.00 0.00 0.00 0.00 0.00 0.04 0.01 0.00 0.00 0.00 0.00 0.00 0.00 0.00 0.00 0.00
0.00 0.00 0.00 0.00 0.00 0.00 0.00 0.00 0.00 0.00 0.00 0.00 0.00 0.00 0.00 0.00 0.00 0.00 0.00 0.00 0.00 0.00 0.00 0.00 0.00 0.00 0.00 0.00 0.00 0.00 0.00 0.00 0.00 0.00 0.00 0.00 0.00 0.00 0.00 0.00 0.00 0.00 0.00 0.00 0.00
0.00 0.00 0.00 0.00 0.00 0.00 0.00 0.00 0.00 0.00 0.00 0.00 0.00 0.00 0.00 0.00 0.00 0.00 0.00 0.00 0.00 0.00 0.00 0.00 0.00 0.00 0.00 0.00 0.00 0.00 0.00 0.00 0.00 0.00 0.00 0.00 0.00 0.00 0.00 0.00 0.00 0.00 0.00 0.00 0.00
0.00 0.00 0.00 0.00 0.00 0.00 0.00 0.00 0.00 0.00 0.00 0.00 0.00 0.00 0.00 0.00 0.00 0.00 0.00 0.00 0.00 0.00 0.00 0.00 0.00 0.00 0.00 0.00 0.00 0.00 0.00 0.00 0.00 0.00 0.00 0.00 0.00 0.00 0.00 0.00 0.00 0.00 0.00 0.00 0.00
0.00 0.00 0.00 0.00 0.00 0.00 0.00 0.00 0.00 0.00 0.00 0.00 0.00 0.00 0.00 0.00 0.00 0.00 0.00 0.00 0.00 0.00 0.00 0.00 0.00 0.00 0.00 0.00 0.00 0.00 0.00 0.00 0.00 0.00 0.00 0.00 0.00 0.00 0.00 0.00 0.00 0.00 0.00 0.00 0.00
MSLP
1020.76 1020.08 1019.86 1019.60 1019.28 1018.94 1018.73 1018.34 1018.06 1017.70 1017.45 1016.84 1016.54 1016.01 1015.55 1015.27 1014.37 1013.58 1013.65 1013.37 1013.10 1012.63 1012.14 1011.57 1011.06 1011.25 1011.28 1011.29 1011.04 1010.96 1011.49 1010.66 1009.95 1009.41 1008.36 1007.08 1008.54 1009.54 1009.93 1009.63 1010.16 1010.77 1009.90 1008.07 1008.74
1020.41 1020.13 1019.94 1019.49 1019.26 1018.95 1018.69 1018.20 1017.99 1017.63 1017.20 1016.71 1016.31 1015.93 1015.67 1015.17 1014.70 1013.61 1013.08 1012.94 1012.81 1012.55 1012.31 1011.85 1011.63 1011.37 1011.75 1011.42 1011.23 1011.18 1011.01 1010.44 1009.74 1008.98 1008.51 1007.81 1008.40 1008.68 1009.36 1009.63 1011.26 1010.64 1008.05 1007.75 1008.58
1020.39 1020.20 1019.75 1019.45 1019.22 1018.87 1018.52 1018.18 1017.82 1017.40 1016.87 1016.27 1016.00 1015.78 1015.56 1015.21 1014.63 1013.38 1012.84 1012.82 1012.58 1012.42 1012.47 1012.19 1011.85 1011.66 1011.86 1011.64 1011.39 1010.79 1010.20 1010.21 1009.42 1008.94 1008.40 1008.22 1007.90 1008.24 1009.07 1010.04 1010.70 1010.57 1009.69 1008.14 1008.39
1020.45 1020.10 1019.76 1019.43 1019.03 1018.63 1018.25 1017.83 1017.41 1017.05 1016.59 1016.01 1015.70 1015.53 1015.16 1015.08 1014.34 1012.92 1012.75 1012.70 1012.35 1012.11 1012.28 1011.84 1011.81 1011.94 1011.84 1011.82 1011.24 1011.07 1010.48 1010.16 1009.69 1008.91 1008.27 1007.93 1007.89 1007.89 1008.36 1008.34 1008.95 1008.43 1009.76 1008.80 1008.28
1020.39 1020.01 1019.64 1019.22 1018.79 1018.40 1018.06 1017.65 1017.26 1016.87 1016.38 1015.95 1015.66 1015.45 1014.97 1014.46 1013.34 1012.58 1012.62 1012.51 1012.23 1012.10 1012.09 1011.98 1012.02 1012.15 1012.27 1012.00 1011.61 1010.94 1010.49 1009.92 1009.43 1008.74 1008.08 1007.76 1007.68 1007.65 1007.67 1008.09 1008.75 1008.90 1009.74 1009.80 1008.68
1020.26 1019.89 1019.51 1019.13 1018.77 1018.35 1017.86 1017.45 1017.12 1016.67 1016.27 1015.92 1015.67 1015.55 1015.18 1013.80 1012.20 1012.17 1012.30 1012.32 1012.26 1012.27 1012.23 1012.17 1012.26 1012.22 1012.34 1012.17 1012.00 1011.13 1010.55 1010.11 1009.50 1008.88 1008.12 1007.92 1007.55 1007.46 1007.04 1007.48 1008.10 1007.96 1008.87 1009.01 1008.10
1020.33 1019.93 1019.53 1019.13 1018.71 1018.15 1017.49 1017.10 1016.82 1016.45 1016.14 1015.80 1015.61 1015.57 1014.73 1012.95 1011.99 1011.98 1012.00 1012.11 1012.02 1012.20 1012.35 1012.27 1012.38 1012.64 1012.69 1012.39 1011.81 1011.54 1011.23 1010.46 1009.78 1009.04 1008.27 1008.12 1007.39 1006.63 1007.07 1007.32 1007.67 1007.81 1007.71 1007.99 1008.35
1020.31 1019.91 1019.48 1019.01 1018.42 1017.78 1017.03 1016.63 1016.34 1015.99 1015.78 1015.69 1015.68 1015.60 1014.11 1012.09 1012.03 1011.94 1011.81 1011.82 1011.76 1011.89 1012.01 1012.06 1012.15 1012.41 1012.61 1012.28 1011.96 1011.82 1011.52 1010.98 1009.71 1008.93 1008.25 1008.73 1006.65 1007.16 1006.89 1006.84 1007.03 1007.10 1007.21 1007.49 1007.43
1020.38 1019.90 1019.36 1018.76 1018.16 1017.41 1016.56 1016.01 1015.59 1015.33 1015.49 1015.48 1015.61 1015.18 1013.46 1012.22 1012.00 1011.59 1011.55 1011.77 1011.74 1011.68 1011.75 1011.77 1012.03 1012.36 1012.23 1012.52 1012.73 1012.28 1012.10 1011.30 1010.21 1009.33 1009.11 1008.92 1007.05 1007.02 1006.70 1006.59 1006.35 1006.74 1006.53 1006.40 1006.89
1020.28 1019.84 1019.34 1018.75 1018.04 1017.29 1016.24 1015.22 1014.97 1015.08 1015.27 1015.22 1014.93 1014.75 1013.11 1012.46 1011.85 1011.50 1011.44 1011.59 1011.82 1011.82 1011.86 1012.01 1012.48 1012.72 1012.62 1012.78 1012.94 1012.58 1012.18 1011.30 1010.48 1009.63 1008.99 1008.98 1008.27 1007.44 1006.86 1006.21 1005.94 1005.99 1006.13 1005.78 1005.72
1020.27 1019.82 1019.28 1018.67 1017.95 1017.21 1016.56 1015.46 1015.82 1015.57 1015.24 1015.01 1014.55 1014.01 1013.07 1012.41 1011.70 1011.56 1011.41 1011.55 1011.78 1012.14 1012.44 1012.35 1012.93 1012.84 1012.48 1012.37 1012.22 1012.03 1011.82 1011.29 1010.45 1009.58 1009.33 1008.86 1008.27 1007.78 1006.81 1006.34 1005.87 1005.61 1005.61 1005.45 1004.96
1020.31 1019.78 1019.22 1018.58 1017.94 1017.30 1016.96 1017.33 1017.95 1018.09 1016.68 1014.48 1013.78 1013.34 1012.69 1012.57 1012.26 1011.50 1011.34 1011.84 1012.01 1012.50 1012.47 1012.64 1012.62 1011.99 1011.77 1011.81 1011.78 1011.69 1011.47 1011.03 1010.17 1009.61 1009.60 1008.97 1008.28 1007.62 1006.86 1006.18 1005.60 1005.12 1005.21 1005.25 1005.44
1020.35 1019.87 1019.17 1018.51 1017.70 1017.53 1017.58 1017.85 1017.61 1017.59 1017.41 1014.50 1013.19 1012.67 1012.38 1012.50 1012.22 1011.49 1011.35 1011.68 1012.14 1012.46 1012.57 1012.69 1012.17 1011.68 1011.46 1011.55 1011.59 1011.46 1011.38 1010.97 1010.44 1010.01 1009.54 1009.45 1008.62 1007.78 1006.59 1006.00 1005.33 1004.64 1004.63 1005.00 1005.42
1020.39 1019.84 1019.16 1018.37 1017.90 1017.76 1017.93 1017.79 1017.60 1017.52 1016.93 1014.49 1012.97 1012.13 1012.14 1012.21 1011.92 1010.99 1010.92 1011.71 1012.13 1012.32 1012.15 1012.27 1011.92 1011.73 1011.61 1011.70 1011.66 1011.22 1010.97 1010.97 1010.78 1010.73 1010.52 1009.95 1009.38 1008.43 1007.30 1006.26 1005.33 1004.67 1004.77 1005.14 1005.36
1020.33 1019.87 1019.18 1018.83 1018.92 1018.16 1018.22 1017.74 1017.57 1017.73 1016.38 1013.93 1012.61 1011.70 1011.66 1012.18 1011.58 1010.90 1010.74 1011.52 1012.01 1012.36 1012.57 1012.30 1011.85 1011.70 1011.72 1011.61 1011.35 1011.01 1010.67 1011.01 1011.03 1011.11 1011.04 1010.63 1010.62 1008.37 1007.82 1007.03 1006.13 1005.33 1004.77 1004.97 1005.27
1020.22 1019.90 1019.49 1018.94 1018.90 1018.14 1017.73 1017.61 1017.86 1017.46 1015.39 1013.73 1012.66 1012.27 1012.25 1011.73 1011.52 1010.94 1011.33 1011.76 1012.04 1012.53 1012.60 1012.33 1011.57 1011.55 1011.36 1011.12 1010.90 1010.78 1010.87 1010.72 1011.32 1011.40 1011.40 1010.79 1011.00 1009.38 1008.69 1008.50 1007.37 1006.12 1004.78 1005.14 1006.00
1020.00 1019.65 1019.56 1018.97 1018.56 1017.82 1017.75 1017.90 1017.82 1016.80 1014.81 1014.62 1013.70 1013.14 1012.86 1012.42 1011.93 1011.79 1011.91 1012.82 1013.35 1013.45 1013.73 1012.80 1012.03 1011.63 1011.08 1010.99 1010.50 1010.64 1011.79 1012.39 1012.55 1012.34 1011.97 1011.20 1010.88 1009.97 1008.99 1008.18 1007.82 1007.02 1006.21 1005.45 1005.91
1019.76 1019.20 1018.77 1018.26 1017.95 1017.84 1018.00 1018.07 1017.57 1016.77 1015.87 1015.13 1014.48 1013.55 1013.35 1013.03 1012.80 1012.72 1012.90 1013.54 1013.95 1014.38 1014.59 1014.39 1012.83 1011.74 1011.14 1011.11 1010.87 1011.06 1012.47 1013.69 1014.16 1013.80 1013.03 1012.56 1012.29 1010.17 1009.60 1008.55 1008.46 1006.23 1007.06 1006.61 1007.33
1019.51 1018.94 1018.69 1017.97 1017.83 1018.07 1018.30 1018.32 1017.77 1016.88 1016.39 1015.79 1014.96 1014.50 1014.13 1013.82 1013.92 1013.70 1013.87 1014.19 1014.67 1014.87 1015.42 1014.88 1013.50 1011.78 1011.04 1010.60 1010.90 1011.34 1012.76 1014.74 1015.27 1014.68 1013.76 1012.98 1012.46 1011.04 1009.74 1009.87 1009.03 1008.98 1007.70 1008.68 1009.17
1020.22 1019.37 1018.34 1017.75 1017.68 1018.25 1018.67 1018.12 1017.25 1016.72 1016.40 1016.06 1015.98 1015.45 1015.58 1015.24 1015.02 1014.74 1014.40 1014.68 1014.79 1014.87 1014.98 1015.02 1014.29 1012.25 1011.12 1010.44 1010.86 1011.46 1012.78 1014.24 1014.69 1014.59 1014.03 1012.58 1011.16 1010.29 1009.55 1010.15 1010.07 1010.10 1010.01 1010.04 1010.48
1020.26 1019.45 1018.03 1017.61 1017.93 1018.43 1018.84 1017.89 1017.03 1016.48 1016.34 1016.45 1016.34 1016.33 1016.13 1016.16 1015.76 1015.38 1014.90 1015.03 1014.77 1014.76 1014.79 1015.19 1015.11 1013.20 1012.21 1011.14 1010.94 1011.31 1011.81 1012.87 1013.88 1014.57 1014.16 1013.07 1011.69 1010.45 1010.25 1010.11 1010.26 1011.05 1011.15 1011.43 1011.77
1020.08 1019.43 1017.91 1017.83 1018.55 1018.46 1018.37 1017.35 1017.01 1016.63 1016.37 1016.37 1016.17 1016.32 1016.38 1016.40 1016.23 1015.87 1015.45 1014.95 1014.76 1014.91 1015.27 1015.37 1015.52 1014.90 1013.26 1011.46 1010.77 1011.03 1011.15 1011.72 1013.11 1013.91 1013.95 1013.48 1012.26 1011.14 1010.87 1010.89 1011.15 1011.69 1011.90 1012.09 1012.44
1020.05 1018.96 1017.99 1018.02 1018.57 1018.59 1017.74 1017.12 1016.81 1016.64 1016.56 1016.48 1016.57 1016.50 1016.45 1016.67 1016.83 1016.04 1015.49 1015.15 1015.10 1015.10 1015.29 1015.60 1015.74 1015.53 1013.95 1012.46 1011.40 1011.35 1011.11 1011.10 1011.72 1012.72 1013.07 1013.00 1012.38 1011.65 1011.30 1011.37 1011.76 1012.18 1012.72 1012.87 1013.02
1020.11 1019.36 1018.67 1018.60 1018.22 1018.12 1017.82 1017.35 1017.02 1016.71 1016.54 1016.56 1016.66 1016.65 1016.84 1016.97 1016.80 1016.69 1016.28 1015.66 1015.45 1015.41 1015.50 1016.01 1016.40 1016.37 1015.85 1014.49 1013.53 1012.19 1011.31 1011.01 1011.41 1012.25 1012.35 1012.30 1012.08 1011.92 1012.15 1012.20 1012.42 1012.60 1012.77 1012.87 1012.96
1019.97 1019.19 1018.21 1018.74 1018.25 1017.91 1017.64 1017.39 1017.12 1016.95 1016.76 1016.69 1016.85 1017.06 1017.41 1017.47 1017.54 1017.09 1016.79 1016.48 1015.93 1015.55 1015.98 1016.46 1016.67 1016.12 1015.12 1013.87 1012.95 1012.06 1011.48 1011.17 1011.29 1011.58 1011.98 1012.19 1011.95 1011.88 1011.81 1012.16 1012.54 1012.82 1013.05 1013.20 1013.49
1019.49 1018.91 1018.56 1018.29 1017.95 1017.85 1017.54 1017.33 1016.96 1016.86 1016.98 1017.08 1017.36 1017.49 1017.71 1018.13 1018.23 1017.93 1017.75 1017.55 1017.16 1016.59 1016.87 1016.90 1016.86 1016.30 1014.88 1013.13 1012.53 1012.04 1011.49 1011.35 1011.41 1011.59 1011.97 1012.25 1012.50 1012.34 1012.24 1012.53 1012.99 1013.32 1013.49 1013.84 1014.17
1018.44 1017.98 1017.93 1018.08 1017.81 1018.05 1017.58 1017.11 1017.21 1017.10 1017.24 1017.07 1017.45 1017.60 1017.83 1018.04 1018.04 1017.70 1017.37 1017.14 1017.05 1017.37 1017.64 1017.77 1017.40 1017.25 1015.71 1013.78 1012.54 1012.12 1011.76 1011.59 1011.90 1012.11 1012.21 1012.51 1012.78 1012.68 1013.43 1013.77 1014.08 1014.01 1013.89 1014.37 1014.85
Thickness
5689 5695 5695 5695 5696 5698 5697 5698 5698 5698 5697 5700 5698 5699 5699 5697 5701 5702 5693 5693 5694 5696 5700 5705 5707 5706 5707 5703 5711 5714 5682 5692 5708 5716 5734 5760 5736 5732 5736 5738 5734 5730 5737 5769 5774
5692 5693 5693 5696 5695 5695 5694 5696 5695 5694 5695 5696 5696 5696 5693 5693 5691 5693 5694 5689 5687 5688 5687 5687 5685 5693 5682 5689 5693 5687 5679 5693 5717 5724 5724 5740 5731 5734 5727 5728 5712 5721 5756 5766 5762
5691 5690 5693 5693 5693 5693 5693 5693 5693 5693 5694 5696 5694 5692 5690 5688 5684 5684 5688 5685 5683 5682 5681 5681 5682 5682 5674 5680 5681 5688 5686 5698 5709 5717 5722 5724 5731 5735 5723 5712 5714 5715 5737 5758 5755
5689 5690 5691 5691 5692 5693 5693 5693 5693 5692 5693 5694 5693 5690 5689 5683 5661 5685 5684 5681 5681 5681 5676 5677 5673 5667 5666 5664 5678 5668 5687 5691 5696 5708 5715 5717 5726 5726 5723 5728 5732 5742 5724 5744 5749
5688 5690 5690 5691 5692 5692 5692 5692 5692 5692 5693 5692 5690 5687 5686 5679 5676 5686 5682 5679 5679 5677 5670 5668 5662 5659 5652 5657 5663 5668 5677 5686 5691 5699 5708 5714 5713 5720 5724 5726 5722 5729 5721 5709 5737
5688 5689 5689 5690 5690 5691 5692 5692 5690 5691 5691 5689 5686 5682 5679 5669 5691 5686 5682 5679 5675 5670 5665 5664 5658 5659 5652 5652 5650 5664 5670 5674 5683 5688 5697 5696 5703 5712 5731 5723 5719 5725 5724 5727 5739
5685 5686 5687 5688 5688 5690 5692 5692 5690 5690 5688 5687 5684 5679 5675 5673 5689 5685 5681 5676 5675 5668 5658 5661 5658 5649 5646 5642 5655 5656 5649 5659 5669 5677 5682 5685 5686 5708 5718 5716 5712 5720 5725 5727 5730
5683 5685 5686 5686 5688 5690 5693 5693 5692 5690 5688 5684 5681 5676 5668 5692 5687 5682 5680 5675 5674 5669 5663 5661 5658 5648 5642 5647 5644 5639 5641 5631 5657 5666 5676 5662 5676 5693 5704 5705 5708 5711 5720 5719 5728
5681 5682 5683 5685 5687 5690 5694 5695 5695 5692 5687 5682 5678 5674 5668 5690 5679 5683 5680 5668 5668 5667 5662 5663 5653 5640 5639 5627 5615 5623 5610 5623 5638 5658 5651 5645 5667 5683 5692 5696 5707 5702 5716 5725 5719
5679 5680 5682 5683 5686 5689 5694 5698 5695 5691 5686 5681 5679 5668 5679 5670 5678 5679 5678 5671 5659 5655 5649 5644 5634 5621 5620 5612 5598 5607 5607 5619 5620 5641 5641 5635 5642 5667 5679 5688 5698 5705 5707 5723 5730
5677 5677 5679 5681 5684 5687 5689 5692 5678 5676 5678 5674 5672 5670 5673 5678 5682 5673 5675 5665 5658 5646 5626 5630 5615 5605 5614 5616 5613 5609 5605 5603 5616 5632 5619 5625 5633 5644 5666 5677 5684 5693 5701 5715 5734
5673 5675 5676 5679 5681 5683 5681 5669 5659 5656 5650 5677 5678 5676 5678 5675 5659 5668 5672 5649 5641 5625 5630 5615 5604 5621 5623 5616 5609 5605 5597 5596 5609 5618 5607 5613 5619 5639 5651 5666 5683 5691 5698 5704 5717
5670 5672 5675 5676 5680 5676 5671 5662 5662 5660 5643 5669 5679 5675 5675 5671 5657 5660 5665 5651 5636 5627 5624 5612 5615 5624 5618 5607 5602 5599 5589 5590 5592 5600 5603 5598 5601 5619 5645 5656 5675 5689 5700 5701 5704
5668 5670 5673 5677 5675 5671 5663 5662 5660 5658 5637 5660 5666 5674 5674 5668 5656 5675 5672 5653 5639 5626 5625 5616 5621 5611 5605 5600 5600 5588 5601 5593 5588 5577 5563 5590 5571 5600 5624 5642 5662 5681 5690 5691 5700
5666 5668 5671 5671 5665 5664 5661 5661 5658 5649 5622 5665 5666 5684 5676 5662 5663 5664 5672 5653 5633 5628 5623 5613 5614 5607 5598 5600 5602 5594 5601 5589 5583 5569 5563 5569 5556 5595 5612 5624 5640 5663 5679 5687 5694
5664 5665 5666 5667 5663 5664 5662 5659 5650 5636 5630 5654 5666 5660 5656 5662 5661 5666 5655 5654 5646 5632 5627 5619 5630 5619 5608 5609 5607 5602 5594 5590 5577 5570 5549 5564 5556 5575 5596 5603 5624 5649 5677 5681 5681
5662 5664 5663 5663 5661 5665 5662 5653 5633 5621 5660 5642 5646 5650 5647 5648 5654 5653 5643 5628 5612 5601 5597 5610 5618 5618 5620 5604 5611 5605 5578 5556 5552 5553 5558 5569 5564 5573 5595 5611 5618 5634 5656 5673 5680
5659 5664 5665 5665 5665 5663 5656 5641 5624 5641 5635 5647 5644 5646 5641 5650 5648 5643 5632 5618 5619 5610 5594 5582 5585 5612 5618 5604 5598 5597 5576 5555 5548 5555 5558 5553 5555 5584 5592 5610 5617 5647 5647 5660 5664
5657 5661 5661 5664 5662 5658 5644 5625 5626 5633 5637 5631 5635 5636 5632 5638 5633 5631 5624 5619 5613 5608 5591 5582 5590 5621 5622 5622 5611 5598 5583 5562 5549 5549 5561 5561 5562 5580 5595 5600 5609 5617 5634 5640 5643
5645 5650 5657 5662 5660 5650 5634 5631 5638 5642 5636 5631 5618 5627 5613 5618 5618 5617 5622 5622 5615 5614 5610 5600 5585 5616 5623 5628 5618 5604 5591 5572 5562 5570 5552 5586 5591 5593 5602 5599 5602 5613 5618 5627 5635
5639 5643 5654 5658 5654 5638 5623 5634 5641 5645 5638 5623 5617 5613 5616 5610 5612 5612 5619 5619 5621 5614 5612 5603 5592 5600 5613 5615 5607 5602 5596 5590 5577 5566 5569 5567 5582 5605 5606 5612 5611 5603 5608 5608 5617
5633 5631 5650 5651 5629 5627 5627 5641 5639 5636 5637 5628 5626 5618 5613 5610 5608 5608 5611 5618 5623 5617 5603 5605 5590 5579 5600 5620 5630 5617 5611 5606 5577 5574 5572 5571 5580 5604 5606 5608 5609 5605 5609 5613 5616
5625 5631 5643 5641 5619 5618 5633 5640 5639 5631 5628 5624 5618 5619 5617 5610 5599 5609 5616 5622 5616 5616 5607 5603 5588 5575 5590 5604 5616 5610 5614 5615 5607 5590 5581 5567 5581 5608 5609 5609 5609 5607 5608 5610 5612
5616 5618 5627 5624 5625 5627 5625 5624 5625 5633 5627 5625 5618 5617 5611 5605 5607 5601 5603 5613 5612 5615 5614 5602 5587 5582 5571 5581 5590 5596 5609 5617 5606 5586 5592 5592 5597 5605 5606 5606 5608 5609 5610 5612 5615
5608 5615 5626 5613 5618 5624 5625 5622 5616 5615 5623 5623 5614 5609 5602 5597 5591 5597 5599 5599 5607 5615 5606 5596 5583 5591 5595 5603 5605 5609 5613 5612 5612 5612 5599 5600 5604 5609 5613 5611 5610 5610 5611 5612 5612
5604 5608 5613 5611 5621 5620 5618 5615 5616 5616 5614 5607 5601 5599 5596 5585 5588 5584 5587 5591 5589 5598 5592 5591 5584 5590 5596 5617 5618 5614 5612 5612 5614 5610 5605 5604 5598 5609 5610 5611 5608 5606 5607 5605 5604
5601 5609 5607 5607 5609 5604 5605 5611 5607 5611 5609 5609 5604 5595 5588 5586 5586 5588 5591 5591 5593 5586 5582 5578 5579 5576 5581 5604 5610 5603 5608 5610 5606 5603 5606 5596 5605 5608 5599 5600 5596 5603 5604 5600 5596